| time (UTC) | temp F | wind direction | speed MPH | gust MPH | rain 1hr in | rain 24hr in | rain mn in | humidity % | barometer mb |
| 20260901224516 | 87 | 181 | 2.0 | 5.0 | 0.00 | 0.00 | 0.00 | 72 | 1013.8 |
| 20260901223518 | 87 | 154 | 2.0 | 7.0 | 0.00 | 0.00 | 0.00 | 72 | 1013.8 |
| 20260901222516 | 87 | 203 | 2.0 | 5.0 | 0.00 | 0.00 | 0.00 | 72 | 1013.8 |
| 20260901221518 | 87 | 232 | 2.0 | 7.0 | 0.00 | 0.00 | 0.00 | 71 | 1013.7 |
| 20260901220516 | 87 | 158 | 2.0 | 7.0 | 0.00 | 0.00 | 0.00 | 70 | 1013.6 |
| 20260901215519 | 87 | 165 | 2.0 | 7.0 | 0.00 | 0.00 | 0.00 | 71 | 1013.6 |
| 20260901214521 | 87 | 260 | 2.0 | 7.0 | 0.00 | 0.00 | 0.00 | 70 | 1013.5 |
| 20260901213516 | 87 | 203 | 2.0 | 9.0 | 0.00 | 0.00 | 0.00 | 70 | 1013.6 |
| 20260901212521 | 87 | 180 | 2.0 | 7.0 | 0.00 | 0.00 | 0.00 | 72 | 1013.7 |
| 20260901211518 | 87 | 191 | 2.0 | 7.0 | 0.00 | 0.00 | 0.00 | 70 | 1013.7 |
| 20260901210516 | 87 | 169 | 4.0 | 12.0 | 0.00 | 0.00 | 0.00 | 69 | 1013.8 |
| 20260901205516 | 88 | 270 | 2.0 | 11.0 | 0.00 | 0.00 | 0.00 | 69 | 1013.7 |
| 20260901204513 | 88 | 211 | 4.0 | 11.0 | 0.00 | 0.00 | 0.00 | 69 | 1013.7 |
| 20260901203515 | 88 | 190 | 2.0 | 11.0 | 0.00 | 0.00 | 0.00 | 70 | 1013.8 |
| 20260901202513 | 87 | 157 | 2.0 | 9.0 | 0.00 | 0.00 | 0.00 | 70 | 1013.9 |
| 20260901201516 | 88 | 180 | 4.0 | 9.0 | 0.00 | 0.00 | 0.00 | 70 | 1013.9 |
| 20260901200513 | 87 | 151 | 2.0 | 9.0 | 0.00 | 0.00 | 0.00 | 71 | 1013.8 |
| 20260901195512 | 87 | 221 | 2.0 | 9.0 | 0.00 | 0.00 | 0.00 | 71 | 1013.9 |
| 20260901194516 | 87 | 144 | 4.0 | 9.0 | 0.00 | 0.00 | 0.00 | 72 | 1013.9 |
| 20260901193515 | 88 | 344 | 2.0 | 14.0 | 0.00 | 0.00 | 0.00 | 70 | 1014.0 |
| 20260901192512 | 88 | 280 | 2.0 | 9.0 | 0.00 | 0.00 | 0.00 | 73 | 1014.1 |
| 20260901191515 | 87 | 173 | 4.0 | 9.0 | 0.00 | 0.00 | 0.00 | 72 | 1014.1 |
| 20260901190513 | 89 | 316 | 2.0 | 12.0 | 0.00 | 0.00 | 0.00 | 68 | 1014.0 |
| 20260901185533 | 89 | 234 | 2.0 | 12.0 | 0.00 | 0.01 | 0.00 | 69 | 1014.0 |
| 20260901184519 | 88 | 338 | 4.0 | 7.0 | 0.00 | 0.01 | 0.00 | 71 | 1013.9 |
| 20260901183511 | 88 | 342 | 2.0 | 11.0 | 0.00 | 0.01 | 0.00 | 72 | 1013.9 |
| 20260901182514 | 88 | 172 | 4.0 | 11.0 | 0.00 | 0.01 | 0.00 | 71 | 1014.0 |
| 20260901181512 | 88 | 315 | 2.0 | 11.0 | 0.00 | 0.01 | 0.00 | 71 | 1013.9 |
| 20260901180511 | 87 | 186 | 2.0 | 14.0 | 0.00 | 0.01 | 0.00 | 72 | 1013.9 |
| 20260901175529 | 86 | 319 | 2.0 | 11.0 | 0.00 | 0.01 | 0.00 | 74 | 1014.0 |
| 20260901174510 | 86 | 249 | 4.0 | 12.0 | 0.00 | 0.01 | 0.00 | 74 | 1014.1 |
| 20260901173510 | 87 | 178 | 4.0 | 9.0 | 0.00 | 0.01 | 0.00 | 73 | 1014.0 |
| 20260901172512 | 86 | 195 | 2.0 | 9.0 | 0.00 | 0.01 | 0.00 | 72 | 1014.1 |
| 20260901171507 | 86 | 146 | 2.0 | 9.0 | 0.00 | 0.01 | 0.00 | 73 | 1014.1 |
| 20260901170509 | 85 | 342 | 2.0 | 7.0 | 0.00 | 0.01 | 0.00 | 76 | 1014.0 |
| 20260901165510 | 85 | 331 | 2.0 | 9.0 | 0.00 | 0.01 | 0.00 | 75 | 1014.2 |
| 20260901164509 | 85 | 244 | 2.0 | 11.0 | 0.00 | 0.01 | 0.00 | 76 | 1014.5 |
| 20260901163509 | 84 | 266 | 2.0 | 9.0 | 0.00 | 0.01 | 0.00 | 77 | 1014.5 |
| 20260901162509 | 84 | 237 | 2.0 | 9.0 | 0.00 | 0.01 | 0.00 | 78 | 1014.7 |
| 20260901161510 | 83 | 296 | 2.0 | 7.0 | 0.00 | 0.01 | 0.00 | 80 | 1014.8 |
| 20260901160503 | 83 | 308 | 2.0 | 7.0 | 0.00 | 0.01 | 0.00 | 80 | 1014.8 |
| 20260901155504 | 83 | 151 | 2.0 | 7.0 | 0.00 | 0.01 | 0.00 | 80 | 1014.8 |
| 20260901154501 | 82 | 227 | 2.0 | 9.0 | 0.00 | 0.01 | 0.00 | 80 | 1014.8 |
| 20260901153501 | 82 | 182 | 2.0 | 7.0 | 0.00 | 0.01 | 0.00 | 81 | 1014.8 |
| 20260901152503 | 81 | 184 | 0.0 | 9.0 | 0.00 | 0.01 | 0.00 | 82 | 1014.8 |
| 20260901151501 | 81 | 240 | 2.0 | 9.0 | 0.00 | 0.01 | 0.00 | 83 | 1014.9 |
| 20260901150516 | 81 | 170 | 2.0 | 5.0 | 0.00 | 0.01 | 0.00 | 83 | 1014.8 |
| 20260901145504 | 80 | 181 | 0.0 | 5.0 | 0.00 | 0.01 | 0.00 | 85 | 1014.9 |
| 20260901144503 | 79 | 189 | 0.0 | 7.0 | 0.00 | 0.01 | 0.00 | 87 | 1014.8 |
| 20260901143501 | 77 | 285 | 0.0 | 4.0 | 0.00 | 0.01 | 0.00 | 91 | 1014.9 |
| 20260901142502 | 76 | 174 | 0.0 | 7.0 | 0.00 | 0.01 | 0.00 | 93 | 1014.9 |
| 20260901141502 | 75 | 270 | 2.0 | 5.0 | 0.00 | 0.01 | 0.00 | 94 | 1014.8 |
| 20260901140504 | 75 | 200 | 0.0 | 0.0 | 0.00 | 0.01 | 0.00 | 95 | 1014.8 |
| 20260901135502 | 74 | 317 | 0.0 | 0.0 | 0.00 | 0.01 | 0.00 | 95 | 1014.8 |
| 20260901134502 | 74 | 299 | 0.0 | 4.0 | 0.00 | 0.01 | 0.00 | 95 | 1014.8 |
| 20260901133501 | 74 | 309 | 0.0 | 4.0 | 0.00 | 0.01 | 0.00 | 95 | 1015.0 |
| 20260901132504 | 73 | 183 | 0.0 | 4.0 | 0.00 | 0.01 | 0.00 | 95 | 1014.9 |
| 20260901131501 | 73 | 261 | 0.0 | 2.0 | 0.00 | 0.01 | 0.00 | 95 | 1014.8 |
| 20260901130458 | 72 | 177 | 2.0 | 5.0 | 0.00 | 0.01 | 0.00 | 95 | 1014.8 |
| 20260901125501 | 72 | 191 | 2.0 | 7.0 | 0.00 | 0.01 | 0.00 | 95 | 1014.9 |
| 20260901124455 | 71 | 190 | 2.0 | 5.0 | 0.00 | 0.01 | 0.00 | 95 | 1014.9 |
| 20260901123456 | 71 | 202 | 0.0 | 4.0 | 0.00 | 0.01 | 0.00 | 95 | 1014.8 |
| 20260901122500 | 70 | 180 | 0.0 | 0.0 | 0.00 | 0.01 | 0.00 | 94 | 1014.7 |
| 20260901121457 | 69 | 180 | 0.0 | 0.0 | 0.00 | 0.01 | 0.00 | 93 | 1014.5 |
| 20260901120457 | 69 | 180 | 0.0 | 0.0 | 0.00 | 0.01 | 0.00 | 93 | 1014.6 |
| 20260901115459 | 69 | 180 | 0.0 | 0.0 | 0.00 | 0.01 | 0.00 | 93 | 1014.5 |
| 20260901114457 | 69 | 180 | 0.0 | 0.0 | 0.00 | 0.01 | 0.00 | 93 | 1014.5 |
| 20260901113457 | 69 | 180 | 0.0 | 0.0 | 0.00 | 0.01 | 0.00 | 92 | 1014.5 |
| 20260901112456 | 69 | 180 | 0.0 | 0.0 | 0.00 | 0.01 | 0.00 | 92 | 1014.3 |
| 20260901111456 | 69 | 180 | 0.0 | 0.0 | 0.00 | 0.01 | 0.00 | 92 | 1014.4 |
| 20260901110454 | 69 | 180 | 0.0 | 0.0 | 0.00 | 0.01 | 0.00 | 92 | 1014.3 |
| 20260901105456 | 69 | 180 | 0.0 | 0.0 | 0.00 | 0.01 | 0.00 | 92 | 1014.2 |
| 20260901104453 | 69 | 180 | 0.0 | 0.0 | 0.00 | 0.01 | 0.00 | 92 | 1014.1 |
| 20260901103451 | 69 | 180 | 0.0 | 0.0 | 0.00 | 0.01 | 0.00 | 92 | 1014.1 |
| 20260901102453 | 69 | 180 | 0.0 | 0.0 | 0.00 | 0.01 | 0.00 | 92 | 1014.2 |
| 20260901101450 | 70 | 180 | 0.0 | 0.0 | 0.00 | 0.01 | 0.00 | 92 | 1013.9 |
| 20260901100447 | 70 | 180 | 0.0 | 0.0 | 0.00 | 0.01 | 0.00 | 92 | 1013.9 |
| 20260901095449 | 70 | 180 | 0.0 | 0.0 | 0.00 | 0.01 | 0.00 | 92 | 1013.9 |
| 20260901094447 | 70 | 180 | 0.0 | 0.0 | 0.00 | 0.01 | 0.00 | 92 | 1014.0 |
| 20260901093451 | 70 | 180 | 0.0 | 0.0 | 0.00 | 0.01 | 0.00 | 92 | 1014.0 |
| 20260901092453 | 70 | 180 | 0.0 | 0.0 | 0.00 | 0.01 | 0.00 | 92 | 1014.1 |
| 20260901091449 | 70 | 180 | 0.0 | 0.0 | 0.00 | 0.01 | 0.00 | 91 | 1014.0 |
| 20260901090448 | 70 | 180 | 0.0 | 0.0 | 0.00 | 0.01 | 0.00 | 91 | 1013.9 |
| 20260901085441 | 70 | 180 | 0.0 | 0.0 | 0.00 | 0.01 | 0.00 | 91 | 1013.8 |
| 20260901084442 | 70 | 180 | 0.0 | 0.0 | 0.00 | 0.01 | 0.00 | 90 | 1013.7 |
| 20260901083443 | 71 | 180 | 0.0 | 0.0 | 0.00 | 0.01 | 0.00 | 90 | 1013.6 |
| 20260901082443 | 71 | 180 | 0.0 | 0.0 | 0.00 | 0.01 | 0.00 | 90 | 1013.7 |
| 20260901081441 | 71 | 180 | 0.0 | 0.0 | 0.00 | 0.01 | 0.00 | 90 | 1013.7 |
| 20260901080442 | 71 | 180 | 0.0 | 0.0 | 0.00 | 0.01 | 0.00 | 90 | 1013.7 |
| 20260901075441 | 71 | 180 | 0.0 | 0.0 | 0.00 | 0.01 | 0.00 | 89 | 1013.7 |
| 20260901074444 | 72 | 180 | 0.0 | 0.0 | 0.00 | 0.01 | 0.00 | 89 | 1013.6 |
| 20260901073457 | 72 | 180 | 0.0 | 0.0 | 0.00 | 0.01 | 0.00 | 89 | 1013.6 |
| 20260901072443 | 72 | 180 | 0.0 | 0.0 | 0.00 | 0.01 | 0.00 | 89 | 1013.7 |
| 20260901071437 | 73 | 180 | 0.0 | 0.0 | 0.00 | 0.01 | 0.00 | 89 | 1013.7 |
| 20260901070434 | 73 | 180 | 0.0 | 0.0 | 0.00 | 0.01 | 0.00 | 88 | 1013.9 |
| 20260901065434 | 73 | 180 | 0.0 | 0.0 | 0.00 | 0.01 | 0.00 | 88 | 1013.8 |
| 20260901064437 | 73 | 180 | 0.0 | 0.0 | 0.00 | 0.01 | 0.00 | 88 | 1013.7 |
| 20260901063436 | 74 | 180 | 0.0 | 0.0 | 0.00 | 0.01 | 0.00 | 88 | 1013.7 |
| 20260901062437 | 74 | 180 | 0.0 | 0.0 | 0.00 | 0.01 | 0.00 | 88 | 1013.8 |
| 20260901061435 | 74 | 180 | 0.0 | 0.0 | 0.00 | 0.01 | 0.00 | 88 | 1013.8 |
| 20260901060438 | 74 | 180 | 0.0 | 0.0 | 0.00 | 0.01 | 0.00 | 88 | 1013.8 |
| 20260901055431 | 74 | 180 | 0.0 | 0.0 | 0.00 | 0.01 | 0.00 | 88 | 1013.9 |
| 20260901054430 | 74 | 190 | 0.0 | 2.0 | 0.00 | 0.01 | 0.00 | 88 | 1014.1 |
| 20260901053429 | 74 | 184 | 0.0 | 4.0 | 0.00 | 0.01 | 0.00 | 88 | 1014.2 |
| 20260901052426 | 74 | 186 | 0.0 | 2.0 | 0.00 | 0.01 | 0.00 | 87 | 1014.2 |
| 20260901051424 | 74 | 171 | 0.0 | 4.0 | 0.00 | 0.01 | 0.00 | 87 | 1014.2 |
| 20260901050424 | 75 | 224 | 0.0 | 2.0 | 0.00 | 0.01 | 0.00 | 87 | 1014.2 |
| 20260901045425 | 75 | 224 | 0.0 | 4.0 | 0.00 | 0.01 | 0.00 | 87 | 1014.1 |
| 20260901044427 | 74 | 208 | 0.0 | 4.0 | 0.00 | 0.01 | 0.00 | 87 | 1014.1 |
| 20260901043424 | 74 | 172 | 0.0 | 7.0 | 0.00 | 0.01 | 0.00 | 87 | 1014.1 |
| 20260901042425 | 74 | 219 | 2.0 | 9.0 | 0.00 | 0.01 | 0.00 | 87 | 1014.0 |
| 20260901041423 | 74 | 186 | 2.0 | 7.0 | 0.00 | 0.01 | 0.00 | 87 | 1013.9 |
| 20260901040424 | 74 | 213 | 2.0 | 9.0 | 0.00 | 0.01 | 0.00 | 87 | 1014.1 |
| 20260901035423 | 74 | 178 | 0.0 | 5.0 | 0.00 | 0.01 | 0.01 | 86 | 1014.1 |
| 20260901034427 | 74 | 183 | 2.0 | 9.0 | 0.00 | 0.01 | 0.01 | 86 | 1014.1 |
| 20260901033423 | 74 | 200 | 4.0 | 9.0 | 0.00 | 0.01 | 0.01 | 85 | 1014.1 |
| 20260901032421 | 73 | 212 | 4.0 | 11.0 | 0.00 | 0.01 | 0.01 | 85 | 1014.2 |
| 20260901031423 | 73 | 181 | 4.0 | 12.0 | 0.00 | 0.01 | 0.01 | 85 | 1014.2 |
| 20260901030421 | 73 | 184 | 2.0 | 7.0 | 0.00 | 0.01 | 0.01 | 85 | 1014.2 |
| 20260901025422 | 73 | 219 | 2.0 | 5.0 | 0.00 | 0.01 | 0.01 | 84 | 1014.2 |
| 20260901024422 | 73 | 215 | 2.0 | 7.0 | 0.00 | 0.01 | 0.01 | 85 | 1014.2 |
| 20260901023425 | 73 | 201 | 2.0 | 5.0 | 0.00 | 0.01 | 0.01 | 85 | 1014.1 |
| 20260901022417 | 73 | 195 | 2.0 | 5.0 | 0.00 | 0.01 | 0.01 | 85 | 1014.2 |
| 20260901021417 | 73 | 187 | 2.0 | 7.0 | 0.00 | 0.01 | 0.01 | 85 | 1014.2 |
| 20260901020413 | 72 | 194 | 4.0 | 9.0 | 0.00 | 0.01 | 0.01 | 86 | 1014.3 |
| 20260901015413 | 72 | 191 | 4.0 | 9.0 | 0.00 | 0.01 | 0.01 | 87 | 1014.4 |
| 20260901014413 | 72 | 181 | 4.0 | 11.0 | 0.00 | 0.01 | 0.01 | 87 | 1014.4 |
| 20260901013414 | 73 | 164 | 4.0 | 9.0 | 0.00 | 0.01 | 0.01 | 88 | 1014.1 |
| 20260901012417 | 73 | 182 | 2.0 | 7.0 | 0.00 | 0.01 | 0.01 | 88 | 1014.2 |
| 20260901011409 | 73 | 194 | 2.0 | 7.0 | 0.00 | 0.01 | 0.01 | 88 | 1014.0 |
| 20260901010411 | 73 | 209 | 2.0 | 5.0 | 0.00 | 0.01 | 0.01 | 88 | 1013.9 |
| 20260901005409 | 73 | 198 | 0.0 | 5.0 | 0.00 | 0.01 | 0.01 | 88 | 1013.7 |
| 20260901004412 | 73 | 202 | 0.0 | 4.0 | 0.00 | 0.01 | 0.01 | 87 | 1013.6 |
| 20260901003411 | 74 | 174 | 2.0 | 5.0 | 0.00 | 0.01 | 0.01 | 87 | 1013.4 |
| 20260901002409 | 74 | 174 | 2.0 | 7.0 | 0.00 | 0.01 | 0.01 | 87 | 1013.4 |
| 20260901001408 | 74 | 168 | 2.0 | 5.0 | 0.00 | 0.01 | 0.01 | 87 | 1013.4 |
| 20260901000413 | 74 | 174 | 2.0 | 5.0 | 0.00 | 0.01 | 0.01 | 86 | 1013.6 |
| 20260831235412 | 74 | 157 | 2.0 | 5.0 | 0.00 | 0.01 | 0.01 | 86 | 1013.6 |
| 20260831234417 | 74 | 175 | 2.0 | 5.0 | 0.00 | 0.01 | 0.01 | 86 | 1013.6 |
| 20260831233404 | 75 | 146 | 2.0 | 7.0 | 0.00 | 0.01 | 0.01 | 86 | 1013.7 |
| 20260831232405 | 75 | 162 | 4.0 | 7.0 | 0.00 | 0.01 | 0.01 | 87 | 1013.7 |
| 20260831231405 | 75 | 200 | 4.0 | 9.0 | 0.00 | 0.01 | 0.01 | 87 | 1013.9 |
| 20260831230404 | 75 | 209 | 2.0 | 5.0 | 0.00 | 0.01 | 0.01 | 87 | 1013.9 |